Location: Castelbiague
(43.0361°N, 0.9246°E)
Time: 00:15:02
(UTC+00:00)

GRAB - Visible Passes

Search period start: 11 August 2022 00:00
Search period end: 21 August 2022 00:00
Orbit: 899 x 917 km, 69.9° (Epoch: 10 August)

Date Brightness Start Highest point End Pass type
(mag) Time Alt. Az. Time Alt. Az. Time Alt. Az.
15 Aug 9.8 04:20:23 10° ESE 04:22:10 11° E 04:23:58 10° ENE visible
16 Aug 9.4 04:23:19 10° SE 04:26:53 17° E 04:30:27 10° ENE visible
17 Aug 9.2 04:27:06 10° SSE 04:31:37 23° ESE 04:36:10 10° NE visible
18 Aug 8.7 04:31:17 10° SSE 04:36:25 31° ESE 04:41:36 10° NE visible
19 Aug 8.1 04:35:43 10° S 04:41:16 43° ESE 04:46:51 10° NE visible
